Main page
METAR-TAF:

METAR-TAF

Airports :

Skagit Regional Airport

Burlington / Mount Vernon, Washington, United States

latitude: 48-28-15N, longitude: 122-25-15W, elevation: 144 ft

Current weather observation

The report was made 27 minutes ago, at 20:35 UTC
Calm wind
Temperature 68°F
Humidity 83%
Pressure 30.01 in. Hg
Visibility: 10 miles
Clear sky

METAR: KBVS 192035Z AUTO 00000G10KT 10SM CLR 20/17 A3001 RMK A01

Time: 14:02 (21:02 UTC)


TAF: missing

Weather observations and forecasts of more than 4000 airports (METAR and TAF reports).

The available stations are represented by yellow and red dots on the map.

Hover mouse over dot to see the name of the station.

Then click to see weather observations and forecasts.

To change the map : click on the green buttons with a black cross to zoom in, on the green button with a dash to zoom out, or on the green arrows for adjacent maps.


METAR-TAF: